BHS3752 MYEF-MYNN

Flight info

Callsign BHS3752
Flight time 0h 32m
Altitude 16000
Route ZUMMA DCT WELKS
Aircraft B737/M-SDE2E3FGHIRWXY/LB1

Departure

Time 2026-05-06 02:56
Airport Exuma International Airport (MYEF)

Arrival

Time 2026-05-06 03:28
Airport Lynden Pindling International Airport (MYNN)
Time Latitude Longitude Altitude Speed Heading
2026-05-06 02:44 23.56290 -75.87260 20 ft 0 kts 26°
2026-05-06 02:51 23.56288 -75.87260 19 ft 0 kts 26°
2026-05-06 02:51 23.56295 -75.87260 20 ft 1 kts 359°
2026-05-06 02:51 23.56305 -75.87273 20 ft 5 kts 296°
2026-05-06 02:51 23.56314 -75.87353 18 ft 14 kts 256°
2026-05-06 02:52 23.56230 -75.87431 17 ft 18 kts 209°
2026-05-06 02:52 23.56145 -75.87538 17 ft 22 kts 280°
2026-05-06 02:52 23.56223 -75.87699 17 ft 25 kts 300°
2026-05-06 02:52 23.56311 -75.87884 16 ft 28 kts 298°
2026-05-06 02:53 23.56407 -75.88090 16 ft 32 kts 297°
2026-05-06 02:53 23.56508 -75.88300 16 ft 28 kts 299°
2026-05-06 02:53 23.56593 -75.88481 16 ft 24 kts 296°
2026-05-06 02:53 23.56671 -75.88629 16 ft 20 kts 301°
2026-05-06 02:54 23.56691 -75.88674 16 ft 1 kts 178°
2026-05-06 02:54 23.56687 -75.88667 16 ft 0 kts 117°
2026-05-06 02:55 23.56675 -75.88641 16 ft 26 kts 117°
2026-05-06 02:55 23.56413 -75.88094 16 ft 134 kts 117°
2026-05-06 02:56 23.55869 -75.87033 721 ft 172 kts 120°
2026-05-06 02:56 23.55746 -75.85816 1875 ft 183 kts 65°
2026-05-06 02:56 23.56794 -75.85113 2991 ft 199 kts
2026-05-06 02:56 23.58206 -75.85222 3685 ft 207 kts 351°
2026-05-06 02:57 23.59495 -75.85814 4191 ft 208 kts 316°
2026-05-06 02:57 23.60134 -75.87249 4566 ft 218 kts 271°
2026-05-06 02:57 23.59766 -75.88816 5257 ft 214 kts 246°
2026-05-06 02:57 23.59372 -75.90343 5846 ft 216 kts 271°
2026-05-06 02:58 23.59868 -75.91864 6421 ft 219 kts 305°
2026-05-06 02:58 23.60833 -75.93168 7025 ft 220 kts 310°
2026-05-06 02:58 23.61920 -75.94369 7704 ft 230 kts 314°
2026-05-06 02:58 23.63004 -75.95568 8896 ft 224 kts 311°
2026-05-06 02:59 23.64039 -75.96808 9865 ft 227 kts 309°
2026-05-06 02:59 23.65055 -75.98086 10858 ft 228 kts 308°
2026-05-06 02:59 23.66080 -75.99394 11820 ft 230 kts 308°
2026-05-06 02:59 23.67112 -76.00710 12750 ft 232 kts 308°
2026-05-06 03:00 23.68152 -76.02035 13657 ft 234 kts 308°
2026-05-06 03:00 23.69206 -76.03374 14512 ft 237 kts 308°
2026-05-06 03:00 23.70287 -76.04752 15313 ft 242 kts 308°
2026-05-06 03:00 23.71385 -76.06152 15801 ft 245 kts 308°
2026-05-06 03:01 23.72512 -76.07587 15975 ft 247 kts 308°
2026-05-06 03:01 23.73636 -76.09018 15984 ft 246 kts 309°
2026-05-06 03:01 23.74733 -76.10412 15990 ft 244 kts 309°
2026-05-06 03:01 23.75849 -76.11835 15996 ft 245 kts 309°
2026-05-06 03:02 23.76965 -76.13261 15991 ft 246 kts 309°
2026-05-06 03:02 23.78063 -76.14665 15995 ft 244 kts 309°
2026-05-06 03:02 23.79170 -76.16079 16000 ft 244 kts 308°
2026-05-06 03:02 23.80280 -76.17497 16002 ft 246 kts 308°
2026-05-06 03:03 23.81391 -76.18914 16006 ft 245 kts 308°
2026-05-06 03:03 23.82506 -76.20338 16011 ft 245 kts 308°
2026-05-06 03:03 23.83627 -76.21770 16012 ft 246 kts 308°
2026-05-06 03:03 23.84733 -76.23183 16012 ft 245 kts 308°
2026-05-06 03:04 23.85840 -76.24600 16012 ft 245 kts 308°
2026-05-06 03:04 23.86940 -76.26007 16009 ft 244 kts 308°
2026-05-06 03:04 23.88058 -76.27438 16009 ft 245 kts 308°
2026-05-06 03:04 23.89153 -76.28839 16011 ft 244 kts 308°
2026-05-06 03:05 23.90270 -76.30271 16012 ft 245 kts 308°
2026-05-06 03:05 23.91375 -76.31689 16012 ft 244 kts 308°
2026-05-06 03:05 23.92471 -76.33090 16009 ft 245 kts 308°
2026-05-06 03:05 23.93581 -76.34512 16005 ft 245 kts 308°
2026-05-06 03:06 23.94701 -76.35949 16017 ft 250 kts 308°
2026-05-06 03:06 23.95899 -76.37489 16013 ft 283 kts 308°
2026-05-06 03:06 23.97251 -76.39228 16013 ft 314 kts 309°
2026-05-06 03:06 23.98725 -76.41097 16036 ft 342 kts 309°
2026-05-06 03:07 24.00339 -76.43162 16001 ft 369 kts 309°
2026-05-06 03:07 24.02058 -76.45370 15991 ft 392 kts 309°
2026-05-06 03:07 24.03883 -76.47720 15987 ft 409 kts 309°
2026-05-06 03:07 24.05113 -76.49300 15983 ft 410 kts 309°
2026-05-06 03:08 24.07050 -76.51789 15983 ft 414 kts 309°
2026-05-06 03:08 24.08926 -76.54200 15984 ft 413 kts 309°
2026-05-06 03:08 24.10778 -76.56582 15983 ft 413 kts 309°
2026-05-06 03:08 24.12674 -76.59021 15984 ft 412 kts 309°
2026-05-06 03:09 24.14566 -76.61458 15984 ft 413 kts 309°
2026-05-06 03:09 24.16370 -76.63782 15981 ft 411 kts 309°
2026-05-06 03:09 24.18194 -76.66134 15981 ft 413 kts 309°
2026-05-06 03:09 24.19923 -76.68365 15905 ft 401 kts 309°
2026-05-06 03:10 24.21644 -76.70585 15677 ft 384 kts 309°
2026-05-06 03:10 24.23229 -76.72629 15453 ft 369 kts 309°
2026-05-06 03:10 24.24872 -76.74751 15214 ft 353 kts 309°
2026-05-06 03:10 24.26337 -76.76646 14987 ft 341 kts 308°
2026-05-06 03:11 24.27888 -76.78655 14739 ft 328 kts 308°
2026-05-06 03:11 24.29365 -76.80568 14498 ft 317 kts 308°
2026-05-06 03:11 24.30738 -76.82348 14268 ft 308 kts 308°
2026-05-06 03:11 24.32128 -76.84150 14024 ft 299 kts 308°
2026-05-06 03:12 24.33448 -76.85861 13784 ft 291 kts 308°
2026-05-06 03:12 24.34745 -76.87543 13543 ft 283 kts 308°
2026-05-06 03:12 24.36009 -76.89185 13304 ft 279 kts 308°
2026-05-06 03:12 24.37252 -76.90798 13067 ft 280 kts 308°
2026-05-06 03:13 24.38527 -76.92454 12821 ft 282 kts 308°
2026-05-06 03:13 24.39797 -76.94102 12584 ft 280 kts 308°
2026-05-06 03:13 24.41046 -76.95721 12350 ft 278 kts 308°
2026-05-06 03:13 24.42289 -76.97334 12114 ft 276 kts 308°
2026-05-06 03:14 24.43537 -76.98955 11877 ft 276 kts 308°
2026-05-06 03:14 24.44781 -77.00572 11633 ft 274 kts 308°
2026-05-06 03:14 24.46016 -77.02177 11390 ft 275 kts 308°
2026-05-06 03:14 24.47243 -77.03772 11146 ft 274 kts 308°
2026-05-06 03:15 24.48479 -77.05379 10903 ft 272 kts 308°
2026-05-06 03:15 24.49699 -77.06963 10664 ft 273 kts 307°
2026-05-06 03:15 24.50927 -77.08561 10425 ft 272 kts 308°
2026-05-06 03:15 24.52157 -77.10162 10182 ft 272 kts 307°
2026-05-06 03:16 24.53383 -77.11758 9939 ft 271 kts 307°
2026-05-06 03:16 24.54592 -77.13334 9701 ft 271 kts 307°
2026-05-06 03:16 24.55809 -77.14920 9460 ft 270 kts 307°
2026-05-06 03:16 24.57052 -77.16476 9221 ft 270 kts 310°
2026-05-06 03:17 24.58335 -77.17979 8983 ft 270 kts 310°
2026-05-06 03:17 24.59638 -77.19477 8742 ft 269 kts 311°
2026-05-06 03:17 24.60935 -77.20975 8500 ft 268 kts 310°
2026-05-06 03:17 24.62204 -77.22455 8261 ft 266 kts 311°
2026-05-06 03:18 24.63474 -77.23943 8021 ft 265 kts 311°
2026-05-06 03:18 24.64733 -77.25420 7781 ft 263 kts 310°
2026-05-06 03:18 24.65986 -77.26891 7542 ft 264 kts 310°
2026-05-06 03:18 24.67243 -77.28368 7301 ft 263 kts 310°
2026-05-06 03:19 24.68512 -77.29858 7058 ft 262 kts 311°
2026-05-06 03:19 24.69761 -77.31325 6818 ft 263 kts 311°
2026-05-06 03:19 24.71021 -77.32804 6575 ft 262 kts 311°
2026-05-06 03:19 24.72257 -77.34257 6337 ft 261 kts 311°
2026-05-06 03:20 24.74746 -77.37183 5855 ft 261 kts 311°
2026-05-06 03:20 24.75992 -77.38649 5612 ft 259 kts 311°
2026-05-06 03:20 24.77218 -77.40093 5372 ft 258 kts 311°
2026-05-06 03:21 24.78441 -77.41532 5132 ft 257 kts 311°
2026-05-06 03:21 24.79665 -77.42974 4891 ft 257 kts 311°
2026-05-06 03:21 24.80892 -77.44419 4650 ft 257 kts 312°
2026-05-06 03:21 24.82108 -77.45852 4411 ft 256 kts 312°
2026-05-06 03:22 24.83344 -77.47308 4165 ft 255 kts 312°
2026-05-06 03:22 24.84563 -77.48745 3924 ft 256 kts 312°
2026-05-06 03:22 24.85774 -77.50172 3685 ft 255 kts 312°
2026-05-06 03:22 24.87043 -77.51553 3442 ft 254 kts 320°
2026-05-06 03:23 24.88580 -77.52484 3203 ft 254 kts 340°
2026-05-06 03:23 24.90283 -77.52977 2971 ft 246 kts 346°
2026-05-06 03:23 24.91903 -77.53384 2737 ft 235 kts 346°
2026-05-06 03:23 24.93471 -77.53821 2495 ft 226 kts 345°
2026-05-06 03:24 24.94967 -77.54272 2254 ft 219 kts 344°
2026-05-06 03:24 24.96424 -77.54724 2011 ft 212 kts 344°
2026-05-06 03:24 24.97846 -77.55169 1867 ft 200 kts 344°
2026-05-06 03:24 24.99085 -77.55557 1856 ft 176 kts 344°
2026-05-06 03:25 25.00286 -77.55882 1791 ft 175 kts 353°
2026-05-06 03:25 25.01436 -77.55730 1625 ft 160 kts 23°
2026-05-06 03:25 25.02344 -77.55137 1453 ft 149 kts 37°
2026-05-06 03:25 25.03067 -77.54353 1219 ft 144 kts 56°
2026-05-06 03:26 25.03458 -77.53339 991 ft 142 kts 77°
2026-05-06 03:26 25.03581 -77.52276 782 ft 137 kts 89°
2026-05-06 03:26 25.03578 -77.51245 589 ft 133 kts 91°
2026-05-06 03:26 25.03573 -77.50226 403 ft 131 kts 90°
2026-05-06 03:27 25.03580 -77.49226 237 ft 129 kts 89°
2026-05-06 03:27 25.03592 -77.48238 77 ft 125 kts 90°
2026-05-06 03:27 25.03595 -77.47330 25 ft 104 kts 90°
2026-05-06 03:27 25.03599 -77.46719 25 ft 67 kts 90°
2026-05-06 03:28 25.03601 -77.46235 24 ft 48 kts 89°
2026-05-06 03:28 25.03676 -77.46027 24 ft 20 kts 42°
2026-05-06 03:28 25.03773 -77.45927 24 ft 17 kts 44°
2026-05-06 03:28 25.03860 -77.45860 24 ft 13 kts 357°
2026-05-06 03:29 25.03930 -77.45921 24 ft 16 kts 314°
2026-05-06 03:29 25.04145 -77.46159 25 ft 60 kts 315°
2026-05-06 03:29 25.04438 -77.46484 26 ft 57 kts 315°
2026-05-06 03:29 25.04653 -77.46721 26 ft 24 kts 315°
2026-05-06 03:30 25.04750 -77.46693 26 ft 13 kts 45°
2026-05-06 03:30 25.04802 -77.46643 26 ft 6 kts
2026-05-06 03:30 25.04836 -77.46664 26 ft 4 kts 327°
2026-05-06 03:30 25.04848 -77.46673 26 ft 0 kts 325°